Ohio State University, OH

11:42 AM EDT on May 26, 2017 (GMT -0400)
Ohio State University

Weather History for KOSU - May, 2014

Change the Weather History Date:

Monday, May 26, 2014

  Actual Average Record
Temperature  
Mean Temperature 70 °F -  
Max Temperature 84 °F 71 °F 90 °F (2012)
Min Temperature 55 °F 51 °F 39 °F (2013)
Cooling Degree Days 4    
Growing Degree Days 20 (Base 50)    
Moisture  
Dew Point 55 °F    
Average Humidity 58    
Maximum Humidity 86    
Minimum Humidity 39    
Precipitation  
Precipitation 0.00 in - - ()
Sea Level Pressure  
Sea Level Pressure 30.07 in    
Wind  
Wind Speed 3 mph (SW)    
Max Wind Speed 14 mph    
Max Gust Speed -    
Visibility 10 miles    
Events      
Averages and records for this station are not official NWS values.
T = Trace of Precipitation, MM = Missing Value Source: NWS Daily Summary

Daily Weather History Graph

Daily Weather History Graph

Search for Another Location

Airport or City:

Trip Planner

Search our weather history database for the weather conditions in past years. The results will help you decide how hot, cold, wet, or windy it might be!

Date:

Astronomy

May. 26, 2014 Rise Set
Actual Time 6:08 AM EDT 8:50 PM EDT
Civil Twilight 5:36 AM EDT 9:22 PM EDT
Nautical Twilight 4:57 AM EDT 10:02 PM EDT
Astronomical Twilight 4:12 AM EDT 10:47 PM EDT
Moon 4:49 AM EDT 6:52 PM EDT
Length of Visible Light 15h 45m
Length of Day
14h 42m
Waning Crescent, 5% of the Moon is Illuminated
May 26
Waning Crescent
May 28
New
Jun 5
First Quarter
Jun 13
Full
Jun 19
Last Quarter

Hourly Weather History & Observations

Time (EDT) Temp. Heat Index Dew Point Humidity Pressure Visibility Wind Dir Wind Speed Gust Speed Precip Events Conditions
12:53 AM 62.1 °F - 50.0 °F 65% 30.10 in 10.0 mi Calm Calm - N/A   Clear
1:53 AM 62.1 °F - 48.9 °F 62% 30.10 in 10.0 mi Calm Calm - N/A   Clear
2:53 AM 59.0 °F - 51.1 °F 75% 30.11 in 10.0 mi Calm Calm - N/A   Clear
3:53 AM 60.1 °F - 52.0 °F 75% 30.12 in 10.0 mi Calm Calm - N/A   Clear
4:53 AM 55.9 °F - 51.1 °F 84% 30.11 in 10.0 mi East 3.5 mph - N/A   Clear
5:53 AM 55.0 °F - 51.1 °F 86% 30.12 in 10.0 mi Calm Calm - N/A   Clear
6:53 AM 55.0 °F - 51.1 °F 86% 30.13 in 9.0 mi Calm Calm - N/A   Clear
7:53 AM 63.0 °F - 55.9 °F 78% 30.14 in 9.0 mi Calm Calm - N/A   Clear
8:53 AM 70.0 °F - 53.1 °F 55% 30.13 in 10.0 mi South 5.8 mph - N/A   Clear
9:53 AM 73.9 °F - 54.0 °F 50% 30.12 in 10.0 mi SSW 4.6 mph - N/A   Clear
10:53 AM 77.0 °F - 54.0 °F 45% 30.12 in 10.0 mi SW 6.9 mph - N/A   Clear
11:53 AM 79.0 °F - 52.0 °F 39% 30.12 in 10.0 mi WSW 6.9 mph - N/A   Clear
12:53 PM 80.1 °F 79.9 °F 53.1 °F 39% 30.10 in 10.0 mi SSW 6.9 mph - N/A   Scattered Clouds
1:53 PM 80.1 °F 80.4 °F 57.0 °F 45% 30.08 in 10.0 mi West 10.4 mph - N/A   Mostly Cloudy
3:53 PM 82.9 °F 82.1 °F 55.9 °F 39% 30.04 in 10.0 mi WSW 8.1 mph - N/A   Mostly Cloudy
4:53 PM 82.0 °F 82.1 °F 59.0 °F 45% 30.02 in 10.0 mi WNW 13.8 mph - N/A   Mostly Cloudy
5:53 PM 84.0 °F 83.8 °F 59.0 °F 43% 30.00 in 10.0 mi West 6.9 mph - N/A   Scattered Clouds
6:53 PM 82.0 °F 82.1 °F 59.0 °F 45% 29.99 in 10.0 mi WSW 8.1 mph - N/A   Mostly Cloudy
7:53 PM 81.0 °F 81.6 °F 60.1 °F 49% 29.99 in 10.0 mi SW 9.2 mph - N/A   Overcast
8:53 PM 79.0 °F - 62.1 °F 56% 29.99 in 10.0 mi WSW 6.9 mph - N/A   Overcast
9:53 PM 79.0 °F - 62.1 °F 56% 29.99 in 10.0 mi SW 5.8 mph - N/A   Overcast
10:53 PM 77.0 °F - 62.1 °F 60% 30.00 in 10.0 mi SSW 6.9 mph - N/A   Overcast
11:53 PM 75.9 °F - 62.1 °F 62% 30.00 in 10.0 mi SW 6.9 mph - N/A   Mostly Cloudy